User: anonymous   Login
Location: Unspecified
(0.0000°N, 0.0000°E)
Time: 14:52:34
(UTC+00:00)
Language:

UNAMSat - Orbit

View from above orbital plane
View from above orbital plane
View from above satellite
View from above satellite

Ground track
Ground track

The orbit data is extracted from the following two-line orbital elements,

1 24305U 96052B   17347.91867147 +.00000025 +00000-0 +11349-4 0  9990
2 24305 082.9372 219.5762 0028855 262.5678 097.2198 13.73791742066195
Epoch (UTC): 13 December 2017 22:02:53
Eccentricity: 0.0028855
inclination: 82.9372°
perigee height: 965 km
apogee height: 1007 km
right ascension of ascending node: 219.5762°
argument of perigee: 262.5678°
revolutions per day: 13.73791742
mean anomaly at epoch: 97.2198°
orbit number at epoch: 6619

The dashed part of the orbit path shows where the satellite is in the earth's shadow,  

DLR